STARLINK-2617 (48689 NORAD) Tracking and Keplerian Element Data

This shows tracking and keplerian element data for the satellite.

Feedback or suggestion? Click here.




ElementValue
Catalog48689
NameSTARLINK-2617
Epoch Orbit173
Epoch Day170.58334491
Epoch Year2021
RAAN306.2427
Inclination53.0478
Eccentricity0.000131
Argument of Perigee39.5765
Mean Anonmoly93.649
Mean Motion15.73212812
Decay Rate-6.421E-05
L11 48689U 21044BD 21170.58334491 -.00006421 00000-0 -41334-4 0 9998
L22 48689 53.0478 306.2427 0001310 39.5765 93.6490 15.73212812 1732

Live tracking and technical data element details for STARLINK-2617 (NORAD 48689). STARLINK-2617 can be tracked NOW for your location showing map with azimuth and elevation plus other details from your city location.

Track the satellite on the map from your city or location and see movement details for azimuth, elevation, latitude, longitude, range, height, and movement on the map or in text.







IsCatalogInMostPopularTable: catalog: 48689, numindb: 4
Update: records affected: 1



GetName: 48689 STARLINK-2617

Hit Count: updated at: Mon, 21 Jun 2021 04:12:36 GMT